Location: Unspecified
(0.0000°N, 0.0000°E)
Time: 15:21:49
(UTC+00:00)

deb Explorer IX - All Passes

Search period start: 21 April 2018 00:00
Search period end: 01 May 2018 00:00
Orbit: 550 x 1111 km, 38.8° (Epoch: 20 April)

Date Brightness Start Highest point End Pass type
(mag) Time Alt. Az. Time Alt. Az. Time Alt. Az.
21 Apr - 02:11:40 10° NNW 02:18:16 43° NE 02:24:07 10° ESE night (unlit)
21 Apr - 03:59:44 10° WNW 04:05:35 34° SW 04:10:44 10° SSE visible
21 Apr - 13:12:07 10° SSE 13:12:45 10° SE 13:13:25 10° SE daylight
21 Apr - 14:54:57 10° SW 14:59:33 82° NW 15:04:56 10° NE daylight
21 Apr - 16:45:05 10° WNW 16:47:09 12° NNW 16:49:19 10° N daylight
22 Apr - 01:51:07 10° NNW 01:57:53 46° NE 02:03:57 10° ESE night (unlit)
22 Apr - 03:39:19 10° WNW 03:45:14 33° SW 03:50:29 10° SSE visible
22 Apr - 12:51:30 10° SSE 12:52:31 11° SE 12:53:34 10° SE daylight
22 Apr - 14:34:49 10° SW 14:39:18 76° NW 14:44:31 10° NE daylight
22 Apr - 16:25:44 10° NW 16:26:54 11° NNW 16:28:06 10° NNW daylight
23 Apr - 01:30:34 10° NNW 01:37:30 49° NE 01:43:44 10° ESE night (unlit)
23 Apr - 03:18:53 10° WNW 03:24:52 32° SW 03:30:12 10° SSE visible
23 Apr - 12:30:58 10° SSE 12:32:18 11° SE 12:33:38 10° ESE daylight
23 Apr - 14:14:42 10° SW 14:19:04 70° NW 14:24:05 10° NE daylight
23 Apr - 23:27:12 10° NNE 23:28:53 11° NE 23:30:34 10° NE night (unlit)
24 Apr - 01:10:02 10° NW 01:17:05 52° NE 01:23:31 10° ESE night (unlit)
24 Apr - 02:58:29 10° WNW 03:04:29 31° SW 03:09:54 10° SSE night (unlit)
24 Apr - 12:10:29 10° SSE 12:12:04 12° SE 12:13:40 10° ESE daylight
24 Apr - 13:54:34 10° WSW 13:58:51 64° NW 14:03:41 10° NE daylight
24 Apr - 23:06:10 10° NNE 23:08:31 12° NE 23:10:51 10° NE night (unlit)
25 Apr - 00:49:30 10° NW 00:56:39 55° NE 01:03:16 10° ESE night (unlit)
25 Apr - 02:38:04 10° W 02:44:05 30° SW 02:49:35 10° SSE night (unlit)
25 Apr - 11:50:01 10° SSE 11:51:51 12° SE 11:53:41 10° ESE daylight
25 Apr - 13:34:27 10° WSW 13:38:38 58° NW 13:43:17 10° NE daylight
25 Apr - 22:45:18 10° NNE 22:48:08 12° NE 22:50:57 10° ENE night (unlit)
26 Apr - 00:29:00 10° NW 00:36:13 58° NE 00:42:58 10° ESE night (unlit)
26 Apr - 02:17:39 10° W 02:23:41 29° SW 02:29:14 10° SSE night (unlit)
26 Apr - 11:29:34 10° S 11:31:37 13° SE 11:33:41 10° ESE daylight
26 Apr - 13:14:19 10° WSW 13:18:24 53° NW 13:22:54 10° NE daylight
26 Apr - 22:24:33 10° N 22:27:45 13° NE 22:30:56 10° ENE night (unlit)
27 Apr - 00:08:29 10° NW 00:15:45 62° NE 00:22:40 10° ESE night (unlit)
27 Apr - 01:57:15 10° W 02:03:16 28° SW 02:08:51 10° SSE night (unlit)
27 Apr - 11:09:07 10° S 11:11:23 14° SE 11:13:40 10° ESE daylight
27 Apr - 12:54:11 10° WSW 12:58:11 48° NW 13:02:31 10° NE daylight
27 Apr - 22:03:53 10° N 22:07:21 14° NE 22:10:50 10° ENE night (unlit)
27 Apr - 23:48:00 10° NW 23:55:17 65° NE 00:02:20 10° ESE night (unlit)
28 Apr - 01:36:52 10° W 01:42:50 27° SW 01:48:28 10° SSE night (unlit)
28 Apr - 10:48:41 10° S 10:51:10 15° SE 10:53:38 10° ESE daylight
28 Apr - 12:34:03 10° WSW 12:37:59 43° NW 12:42:09 10° NNE daylight
28 Apr - 21:43:15 10° N 21:46:57 14° NE 21:50:41 10° ENE visible
28 Apr - 23:27:31 10° NW 23:34:49 68° NE 23:41:58 10° ESE night (unlit)
29 Apr - 01:16:29 10° W 01:22:24 26° SW 01:28:03 10° SSE night (unlit)
29 Apr - 10:28:14 10° S 10:30:56 17° SE 10:33:37 10° E daylight
29 Apr - 12:13:55 10° WSW 12:17:46 39° NW 12:21:47 10° NNE daylight
29 Apr - 21:22:39 10° N 21:26:31 15° NE 21:30:28 10° ENE visible
29 Apr - 23:07:03 10° NW 23:14:20 72° NE 23:21:35 10° SE night (unlit)
30 Apr - 00:56:07 10° W 01:01:58 25° SW 01:07:35 10° SSE night (unlit)
30 Apr - 10:07:47 10° S 10:10:43 18° SE 10:13:35 10° E daylight
30 Apr - 11:53:45 10° WSW 11:57:33 36° NW 12:01:26 10° NNE daylight
30 Apr - 21:02:06 10° N 21:06:06 16° NE 21:10:14 10° ENE visible
30 Apr - 22:46:37 10° NW 22:53:51 75° NE 23:01:10 10° SE night (unlit)
